CAPE
0 0 0 0 0 0 0 0 0 0 0 0 0 0 0 0 0 0 0 0 0 0 0 0 0 0 0 0 0 0 0 0 0 0 0 0 0 0 0 0 128 214 62 366 478 502 529 532 541 711 862 991 1098 1228 1320 1466 1658 1869 2071 2218 2330 2393 2426 2447 2472 2497 2535 2562 2594 2601 2572 2532 2494 2472 2468 2479 2490 2454 2396 2339 2262 2226 2176 2102 2018 1907 1811
0 0 0 0 0 0 0 0 0 0 0 0 0 0 0 0 0 0 0 0 0 0 0 0 0 0 0 0 0 0 0 0 0 0 0 0 0 0 6 9 18 227 188 368 408 484 633 686 701 792 951 1092 1220 1328 1423 1560 1763 1972 2196 2369 2470 2557 2595 2589 2572 2581 2605 2641 2683 2708 2707 2677 2626 2587 2556 2542 2562 2566 2526 2445 2371 2290 2190 2117 1998 1900 1806
0 0 0 0 0 0 0 0 0 0 0 0 0 0 0 0 0 0 0 0 0 0 0 0 0 0 0 0 0 0 0 0 0 0 0 0 8 9 13 17 31 75 85 271 411 454 620 764 842 874 1018 1204 1327 1405 1511 1641 1807 2037 2304 2490 2594 2705 2764 2756 2725 2726 2731 2725 2742 2783 2803 2791 2768 2716 2664 2624 2613 2622 2615 2572 2506 2402 2288 2196 2093 2000 1919
0 0 0 0 0 0 0 0 0 0 0 0 0 0 0 0 0 0 0 0 0 0 0 0 0 0 0 0 0 0 0 0 0 0 0 0 8 13 22 37 275 251 340 396 428 472 628 788 910 960 1061 1267 1417 1512 1592 1701 1835 2018 2339 2563 2696 2808 2892 2900 2882 2882 2870 2844 2825 2854 2868 2880 2862 2813 2758 2704 2668 2648 2652 2636 2592 2502 2416 2304 2197 2122 2056
0 0 0 0 0 0 0 0 0 0 0 0 0 0 0 0 0 0 0 0 0 0 0 0 0 0 0 0 0 0 0 0 0 0 0 0 10 44 51 34 84 275 341 427 488 515 591 803 992 1083 1139 1267 1445 1595 1674 1773 1863 1988 2308 2596 2750 2856 2951 3012 3040 3020 3000 2971 2960 2953 2956 2958 2929 2888 2836 2766 2714 2668 2656 2642 2614 2562 2490 2391 2316 2240 2174
0 0 0 0 0 0 0 0 0 0 0 0 0 0 0 0 0 0 0 0 0 0 0 0 0 0 0 0 0 396 0 0 0 34 36 0 0 448 432 248 28 142 422 484 514 569 616 726 1006 1206 1226 1287 1444 1582 1705 1799 1884 2020 2258 2517 2730 2857 2958 3065 3136 3134 3110 3097 3092 3073 3052 3025 2992 2955 2896 2842 2758 2689 2656 2625 2608 2584 2526 2452 2388 2332 2286
0 0 0 0 0 0 0 0 0 0 0 0 0 0 0 0 0 0 0 0 0 0 0 0 0 0 728 924 1174 1350 1435 932 0 0 4 203 247 378 552 515 415 405 396 513 588 615 650 722 860 1143 1327 1368 1472 1582 1690 1790 1907 2054 2195 2407 2606 2780 2903 3047 3166 3204 3199 3186 3181 3158 3115 3075 3039 2996 2939 2882 2796 2724 2639 2614 2606 2598 2567 2514 2457 2403 2344
0 0 0 0 0 0 0 0 0 0 0 0 0 0 0 96 240 0 0 0 0 0 0 0 108 805 830 816 1324 1521 1505 1612 1575 1522 1210 832 649 727 490 415 481 494 505 510 578 705 746 782 811 971 1204 1388 1500 1600 1708 1816 1917 2034 2153 2265 2435 2617 2797 2969 3130 3234 3250 3234 3223 3198 3148 3108 3069 3031 2974 2904 2831 2743 2651 2593 2583 2588 2589 2558 2531 2478 2422
0 0 0 0 0 0 0 0 0 0 0 0 0 0 114 480 204 0 0 0 0 0 0 0 544 310 162 423 907 1329 1477 1748 1912 1855 1834 1958 2122 1483 1213 960 736 656 670 554 577 582 698 786 824 935 1083 1263 1427 1568 1705 1821 1916 1990 2058 2148 2277 2459 2652 2845 3032 3196 3273 3271 3243 3204 3166 3119 3090 3068 3008 2936 2866 2769 2688 2612 2563 2568 2601 2607 2595 2572 2532
0 0 0 0 0 0 0 0 0 0 0 0 0 0 326 377 581 184 0 0 0 0 0 17 35 2 20 263 504 1043 1538 1652 1891 1968 1934 1935 1989 2060 2117 1936 1287 1264 1220 978 785 842 932 1046 1055 1075 1100 1188 1314 1556 1716 1838 1937 2010 2036 2089 2187 2317 2499 2689 2895 3088 3231 3269 3239 3206 3165 3142 3126 3105 3045 2980 2914 2841 2755 2670 2598 2576 2575 2600 2614 2628 2621
0 0 0 0 0 0 0 0 0 0 0 0 0 0 8 21 845 774 28 6 0 0 0 0 0 0 6 382 760 1181 1463 1681 1810 2006 2120 2170 2185 2219 2204 1951 2112 2068 1339 1590 1504 1192 1147 1220 1292 1510 1678 1511 1561 1633 1734 1887 1958 1992 2022 2074 2150 2234 2372 2545 2741 2964 3110 3220 3247 3217 3193 3180 3158 3128 3088 3047 2980 2914 2859 2772 2695 2625 2577 2596 2635 2654 2669
0 0 0 0 0 0 6 2 0 0 0 0 0 0 0 69 984 761 460 218 94 0 0 0 0 0 37 452 953 1474 1663 1904 1990 1854 1927 2055 2172 2397 2406 2319 2670 2494 1725 1715 1606 1573 1510 1524 1517 1629 2018 2024 1864 1806 1846 1917 2026 2064 2084 2097 2138 2184 2266 2417 2642 2854 3082 3226 3274 3260 3247 3246 3210 3178 3137 3078 3058 2996 2937 2886 2808 2702 2641 2621 2647 2693 2726
4 0 0 0 0 14 36 98 6 0 0 1 0 0 0 1018 1243 1017 950 939 844 510 275 266 694 1518 947 1189 1492 1676 1717 1730 1934 2227 2236 2306 2383 2368 2368 2601 2845 2866 2878 2160 1617 1889 2010 2058 2410 2092 2166 2345 2284 2112 2051 2094 2108 2140 2200 2235 2223 2223 2238 2324 2546 2790 3024 3210 3294 3318 3302 3300 3286 3260 3202 3160 3111 3047 2995 2948 2902 2827 2750 2692 2695 2746 2791
14 3 2 14 4 44 269 75 94 190 19 0 0 121 1107 1473 1356 1192 1084 1132 1141 1135 1173 1233 1545 1529 1450 1761 1674 1518 1410 1551 1719 1850 1967 2260 2535 2658 2846 3045 3020 3253 3122 3005 2990 2844 2724 2674 2712 2935 2695 2421 2462 2536 2455 2317 2285 2298 2331 2337 2322 2310 2305 2313 2449 2692 2934 3165 3318 3374 3374 3342 3336 3342 3312 3261 3185 3124 3060 3017 2973 2925 2858 2780 2757 2796 2854
119 208 28 7 33 70 157 199 112 282 230 459 968 1562 1546 1179 1131 1007 1050 1129 1114 1132 1205 1254 1287 1304 1266 1306 1364 1191 1321 1203 1202 1409 1586 1828 2070 2102 2339 2813 3202 3364 3488 3357 3302 3250 3197 3130 2988 3026 3167 3128 2920 2710 2671 2718 2710 2631 2515 2476 2520 2511 2488 2480 2474 2605 2800 3006 3225 3372 3416 3396 3368 3373 3362 3354 3304 3235 3170 3103 3080 3014 2953 2903 2874 2895 2928
30 274 4 26 122 177 357 294 267 1009 1074 1274 1588 1504 1110 1159 1007 1030 989 1042 974 975 975 1119 1048 1085 1112 1350 1611 1505 1519 1692 1618 1572 1792 2001 2057 2455 2527 2967 3281 3456 3598 3670 3708 3544 3628 3516 3350 3220 3100 3264 3302 3264 3186 3009 2880 2823 2809 2802 2760 2712 2670 2596 2586 2590 2680 2846 3037 3233 3373 3417 3401 3397 3386 3376 3362 3306 3251 3225 3158 3105 3052 3019 3017 3008 3031
86 10 116 117 124 224 444 628 772 1031 1270 1552 1258 1361 1149 1046 940 937 890 876 905 813 794 699 647 627 678 749 831 948 1276 1573 1664 1745 1930 2045 2074 2236 2370 2663 3002 3388 3444 3568 3777 3918 3829 3590 3686 3646 3514 3331 3234 3329 3350 3414 3370 3265 3133 3031 2975 2871 2808 2772 2736 2676 2640 2710 2903 3099 3300 3403 3441 3424 3403 3365 3350 3349 3318 3314 3246 3164 3134 3125 3114 3119 3147
666 482 168 329 212 130 650 944 1221 1548 1539 1478 1250 1087 1068 877 795 765 764 764 600 562 377 430 505 614 648 623 610 960 1072 1291 1608 1947 2042 1916 2175 2072 2275 2551 2711 2894 3192 3352 3470 3631 3887 3925 3851 3718 3728 3716 3676 3543 3422 3394 3511 3571 3562 3492 3355 3223 3074 3017 2946 2881 2806 2774 2786 3040 3271 3391 3450 3450 3423 3386 3354 3354 3362 3344 3304 3257 3185 3165 3168 3192 3228
185 40 240 282 276 205 632 1177 1231 1459 1425 1308 1089 994 882 811 779 673 586 470 338 270 159 219 347 424 504 586 697 835 948 1166 1576 1704 1924 2070 2085 1911 1956 2240 2270 2494 2636 2779 3090 3225 3529 3658 3778 3871 3813 3762 3698 3660 3724 3719 3642 3673 3690 3675 3638 3607 3503 3393 3323 3239 3130 3035 2986 3097 3279 3390 3444 3458 3440 3415 3365 3378 3376 3386 3346 3259 3220 3179 3207 3263 3310
15 18 152 203 274 384 419 948 1170 1087 1214 671 618 785 887 770 690 494 406 513 510 446 450 423 505 632 652 667 699 738 828 1018 1169 1450 1548 1708 1878 2196 2276 2295 2327 2337 2438 2455 2562 2632 2860 3048 3176 3328 3500 3710 3770 3835 3793 3778 3810 3794 3775 3916 3891 3751 3680 3606 3524 3452 3390 3340 3280 3228 3340 3397 3482 3540 3546 3498 3496 3472 3467 3459 3334 3272 3317 3307 3321 3344 3408
447 644 297 178 236 235 422 438 489 380 214 254 173 574 806 681 621 532 641 588 649 606 602 716 738 726 811 762 731 713 796 855 963 1144 1411 1573 1662 1824 2162 2239 2271 2281 2139 2199 2122 2184 2189 2102 2028 2057 2206 2498 2859 3190 3406 3550 3801 3832 3860 3881 3974 4052 4008 3849 3726 3632 3588 3523 3403 3355 3416 3458 3526 3506 3546 3614 3612 3525 3462 3454 3343 3225 3298 3187 3333 3390 3418
29 26 92 110 75 315 414 428 386 364 154 551 259 531 638 724 666 584 489 588 612 646 689 702 726 760 840 838 746 779 850 968 1037 1396 1466 1686 1731 1846 1882 1952 2013 1996 1991 1995 2120 2157 2114 2015 2050 2197 2310 2387 2372 2359 2420 2522 2650 2930 3372 3710 3792 3902 4057 4161 4155 3950 3815 3651 3502 3458 3385 3452 3506 3541 3616 3659 3617 3621 3578 3376 3098 2887 2982 3065 3192 3327 3488
0 597 363 51 58 116 285 272 278 349 402 425 393 40 303 566 497 427 532 612 692 730 772 852 849 839 868 916 856 761 822 852 1011 1355 1635 1584 1628 1570 1572 1530 1493 1514 1608 1709 1866 2265 2301 2248 2272 2283 2467 2446 2320 2302 2312 2342 2455 2516 2556 2951 3195 3435 3748 4038 4219 4309 4203 3990 3622 3465 3294 3291 3308 3452 3549 3665 3697 3654 3616 3383 2937 2818 2784 2953 2928 3122 3547
485 471 711 304 271 280 110 45 34 70 50 138 134 102 92 176 278 324 508 611 704 750 808 831 834 849 792 838 847 880 911 1000 1047 1109 1162 1189 1208 1208 1225 1280 1291 1400 1446 1498 1482 1566 1684 1735 1748 1822 1932 1952 1913 1860 1721 1611 1510 1490 1514 1949 2512 2822 3162 3474 3684 3838 3864 3802 3802 3457 3366 3122 3090 3314 3476 3541 3598 3616 3475 3290 2988 2906 2647 2416 2454 2687 2902
435 553 533 389 344 205 100 8 1 4 2 107 67 22 20 24 95 337 469 580 693 788 851 872 881 904 930 954 990 1018 1030 1122 1292 1346 1322 1292 1230 1206 1191 1263 1386 1449 1464 1482 1564 1635 1606 1509 1320 1281 1248 1278 1328 1303 1225 1245 1324 1333 1220 1187 1119 1016 1182 1690 2115 2576 2534 1537 2009 1659 2813 2995 2974 3221 3338 3312 3366 3296 3376 3030 2244 2098 2067 2070 1716 1958 1094
666 660 562 448 306 181 104 37 0 0 0 0 22 64 36 41 321 450 541 632 698 722 790 903 940 982 1005 974 957 987 1012 994 1070 1229 1274 1200 1185 1159 1105 1203 1358 1460 1427 1367 1372 1430 1430 1383 1348 1311 1285 1261 1358 1386 1242 1124 1156 1211 1140 1101 1089 1042 944 754 638 746 810 869 546 119 316 2178 3089 3336 3452 3302 3146 3102 3075 2416 2145 2188 2120 1888 1015 902 785
584 599 564 418 288 157 96 112 1 0 0 0 0 0 1 80 0 352 467 530 516 506 614 724 877 1036 1010 1040 1070 1052 1067 945 1010 1137 1130 1112 1081 985 950 980 1224 1358 1362 1359 1311 1314 1366 1433 1394 1304 1270 1285 1437 1366 1270 1163 1080 1046 936 879 883 1147 1197 1206 1225 1087 1112 1052 1112 1585 1306 1584 1657 2412 2868 2851 2772 2623 2318 1820 1735 1609 787 786 654 621 587
451 560 457 90 187 97 12 0 0 0 0 0 0 0 0 0 38 121 108 109 79 29 12 1 200 469 655 804 1018 1132 1156 1076 996 944 918 823 630 435 330 127 145 700 840 904 1091 1139 1236 1323 1408 1447 1459 1472 1494 1444 1262 1163 1116 1101 1026 985 980 1010 1090 1152 933 789 863 799 816 796 650 580 626 315 720 1309 1431 1312 1530 1352 803 572 643 586 531 578 678
402 520 355 262 0 0 0 0 0 0 0 0 0 0 0 0 0 2 26 1 0 0 0 0 0 0 0 536 732 949 1168 1212 1096 977 878 737 677 588 435 380 306 122 0 436 573 799 978 1051 1110 1177 1299 1385 1488 1582 1342 1204 1176 1162 1149 1163 1162 1077 914 869 1101 1236 1100 1268 1113 823 659 456 133 236 136 16 123 331 421 509 550 560 557 579 594 640 678
243 213 10 0 0 0 0 0 0 0 0 0 0 0 0 0 0 0 0 0 0 0 0 0 0 0 0 0 420 602 704 762 802 756 756 646 612 538 507 453 337 84 0 0 464 574 708 780 818 820 1070 1264 1236 1360 1526 1502 1347 1246 1150 1049 940 921 1056 1083 1088 1133 1062 1051 892 672 654 522 435 258 254 326 365 434 509 563 564 553 561 612 604 616 674
89 91 121 0 37 52 10 0 0 0 0 0 0 0 0 0 0 0 0 0 0 0 0 0 0 0 0 0 0 0 443 504 444 481 384 440 170 158 194 122 202 209 0 132 423 510 532 505 492 529 685 1050 1380 1426 1423 1532 1502 1410 1370 1304 1096 1026 978 956 982 995 939 885 839 801 706 615 515 447 365 308 287 267 280 307 339 356 374 407 459 518 550
4 23 8 3 6 3 18 6 0 0 0 0 0 0 0 0 0 0 0 0 0 0 0 0 0 0 0 0 0 0 0 0 0 138 290 229 202 156 0 0 0 5 441 499 370 32 210 262 306 478 554 661 849 1219 1360 1353 1315 1312 1328 1289 1314 1303 1215 1139 1102 1104 1044 1034 982 873 749 638 538 486 432 483 450 397 368 368 362 350 374 434 460 464 503
62 40 27 43 34 18 31 6 1 0 0 0 0 0 0 0 0 1 14 13 6 2 0 0 0 0 0 0 0 0 0 0 0 0 0 0 18 15 0 0 6 18 14 154 63 38 34 7 66 317 472 482 578 774 992 1175 1191 1154 1106 1046 1020 1031 988 1035 1095 1066 1056 1012 947 919 867 774 655 611 560 454 346 266 120 37 250 98 0 0 0 0 0
58 48 40 66 64 38 20 5 15 27 6 28 32 26 21 2 1 0 4 6 7 5 0 0 0 0 0 0 0 0 0 0 0 0 0 0 0 0 0 0 0 0 0 0 3 7 7 4 117 98 304 557 613 574 571 697 990 1219 1127 1028 996 850 801 867 929 1021 1068 1045 916 772 719 661 544 492 375 303 254 225 175 0 0 0 0 0 0 0 9
44 76 56 58 44 35 34 17 8 3 4 2 35 39 11 0 2 8 9 10 8 1 0 0 0 0 0 0 0 0 0 0 0 0 0 0 0 0 0 0 0 0 0 0 0 3 87 203 144 1 77 199 443 527 558 557 570 724 1054 1128 1102 1034 882 776 805 895 930 879 826 695 612 572 489 446 380 292 266 227 0 0 0 0 0 0 0 45 43
64 56 27 18 21 26 30 31 30 34 36 24 14 10 8 3 4 7 0 2 0 0 0 0 0 0 4 10 10 2 6 3 1 0 0 0 0 0 0 0 0 0 0 0 0 0 18 132 271 106 15 55 42 186 299 376 410 590 736 922 816 962 1130 978 770 686 676 610 524 552 552 492 432 387 343 302 132 0 0 0 0 0 93 103 7 13 63
15 12 12 15 20 25 36 44 43 36 33 36 39 40 38 38 30 24 15 8 13 16 18 20 36 49 47 37 31 33 32 24 11 6 2 0 0 0 0 0 0 0 0 0 0 0 0 10 6 1 0 0 0 0 383 633 272 411 560 675 652 819 999 1003 670 570 551 512 444 457 459 356 323 287 266 204 133 71 32 30 0 0 0 129 90 40 105
26 24 10 6 9 13 8 10 30 28 26 24 25 26 28 25 22 24 30 28 33 40 44 49 40 27 17 15 11 9 9 12 8 12 17 15 9 1 0 0 0 0 0 0 0 0 0 1 0 0 0 0 0 0 184 914 869 36 444 220 352 638 694 714 602 588 522 468 472 446 414 364 320 310 260 196 146 105 70 40 7 0 0 46 98 108 132
27 20 12 8 1 21 13 12 9 16 26 12 0 1 1 3 2 18 1 0 2 2 2 0 0 26 14 9 11 14 11 15 17 20 18 8 2 0 0 0 0 0 1 1 0 0 4 9 0 0 0 0 0 0 154 816 434 0 0 13 23 216 181 166 541 632 625 575 563 552 502 460 435 381 338 288 229 174 156 76 2 0 0 47 101 132 136
18 17 56 55 45 30 0 0 0 0 11 18 1 0 32 8 12 14 6 0 0 2 0 0 10 21 19 12 9 4 2 2 2 13 17 10 0 0 0 0 0 0 2 1 0 0 0 0 0 0 0 0 0 0 42 364 66 44 45 46 118 153 231 91 94 238 542 587 487 420 461 542 584 584 509 425 356 328 307 204 64 0 0 94 114 159 171
0 0 0 0 0 0 0 0 0 0 10 48 70 89 99 90 81 67 48 28 30 5 5 50 44 10 4 9 12 9 8 5 2 0 0 0 0 0 0 0 0 0 0 0 0 0 0 0 0 0 0 0 0 132 0 54 0 43 112 128 178 255 365 512 584 468 358 350 376 412 391 409 552 628 641 581 504 406 365 330 184 95 112 141 160 174 182
0 0 0 0 0 0 0 0 0 0 0 0 0 10 15 25 32 94 122 136 134 124 118 174 267 48 1 1 2 2 2 1 1 0 0 0 0 0 0 0 0 0 10 0 0 0 0 0 0 27 0 0 6 240 116 0 0 0 0 0 65 206 246 277 313 326 329 305 203 212 314 299 238 306 500 528 555 465 342 292 250 180 139 114 86 44 58
0 0 0 0 0 0 0 0 0 0 0 0 0 0 2 15 38 37 12 0 0 0 0 0 0 1 0 1 0 0 1 0 0 0 2 1 5 42 56 16 8 47 45 4 10 0 0 0 0 1 20 44 84 156 58 52 76 56 56 61 62 80 44 0 22 21 20 104 119 146 165 173 213 116 298 368 267 412 404 298 255 198 161 141 80 0 0
0 0 0 0 0 0 0 0 0 0 0 0 0 0 0 0 0 0 0 0 0 0 1 4 4 2 1 0 3 6 1 2 1 0 1 1 0 2 14 101 60 108 118 14 0 0 0 0 0 26 14 6 20 75 71 56 73 76 63 56 37 41 46 42 50 46 59 65 66 68 79 83 119 116 3 164 311 372 379 300 253 154 126 55 0 0 0
1 1 0 0 0 0 0 0 0 0 0 0 0 0 0 0 0 0 0 0 0 0 0 0 0 0 0 0 0 4 2 0 0 0 0 0 2 0 2 38 14 10 18 12 0 0 32 20 26 38 20 1 10 20 81 87 59 62 77 79 67 20 0 13 14 24 27 32 62 48 0 20 0 83 50 217 273 298 318 267 211 189 164 134 2 0 0
0 0 0 19 0 0 0 0 1 0 0 0 0 0 0 0 0 0 0 0 0 0 0 0 0 0 0 0 0 0 0 0 0 0 0 0 0 0 0 0 0 0 1 1 1 0 24 117 56 15 2 0 0 0 40 94 100 65 42 33 39 43 51 3 0 0 4 0 0 6 0 0 9 13 118 116 154 223 260 247 186 130 95 130 4 82 0
0 0 0 0 0 0 0 0 1 3 4 0 1 1 2 3 0 0 0 0 0 0 0 0 0 0 0 0 0 0 0 0 0 0 0 0 0 0 0 0 0 0 0 0 10 18 35 28 24 6 0 0 0 0 0 8 61 65 40 17 24 38 71 64 44 16 0 0 0 0 1 0 21 24 8 8 13 68 73 66 158 150 140 196 193 155 39
2 1 0 0 0 0 2 0 0 0 0 0 0 0 2 5 2 0 0 0 0 0 0 0 0 0 0 0 0 0 0 0 0 0 0 0 0 0 0 0 0 0 0 0 6 26 22 7 0 0 0 0 0 0 0 3 0 0 0 0 0 0 0 19 108 106 93 0 0 0 0 0 0 0 20 66 64 72 68 85 72 126 172 243 228 209 166
7 9 10 9 4 2 4 3 3 2 2 2 2 2 2 2 2 2 1 0 0 0 0 0 0 0 0 0 0 0 0 0 0 0 0 0 0 0 0 0 0 0 0 0 0 0 1 0 0 0 0 0 0 0 0 0 0 0 0 0 0 0 0 0 35 56 30 22 0 36 0 21 0 0 0 0 29 55 58 110 118 198 263 298 301 259 238
8 2 6 14 18 17 18 16 12 9 6 8 14 16 11 8 6 7 6 4 2 0 0 0 0 0 0 0 0 0 0 0 0 0 0 0 0 0 0 0 0 0 0 0 0 0 0 0 0 0 0 0 0 0 0 0 0 0 0 0 0 0 0 0 0 8 10 10 11 28 47 49 38 48 4 0 0 0 0 48 141 205 284 322 339 317 318
4 6 5 5 4 4 6 9 6 6 6 7 11 14 16 14 8 5 3 2 2 2 1 2 1 1 0 0 0 0 0 0 0 0 0 0 0 0 0 0 0 0 0 0 0 0 0 0 0 0 0 0 0 0 0 0 12 0 0 0 0 0 0 0 0 0 3 13 14 4 5 50 64 46 48 50 40 2 2 0 45 56 108 206 249 226 280
3 2 0 0 0 2 4 5 6 6 5 2 1 2 2 1 1 0 0 0 0 0 0 0 0 0 0 0 0 0 0 0 0 0 0 0 0 0 0 0 0 0 0 0 0 0 0 0 0 0 0 0 0 0 0 0 1 8 0 0 0 1 0 0 0 0 0 0 0 4 1 0 2 2 2 37 50 51 32 3 4 3 1 62 159 186 178
Wind_Speed
nan nan nan nan nan nan nan nan nan nan nan nan nan nan nan nan nan nan nan nan nan nan nan nan nan nan nan nan nan nan nan nan nan nan nan nan nan nan nan nan 19 19 nan 19 18 18 18 18 18 18 20 21 21 19 16 15 17 17 19 19 19 19 19 18 17 16 16 15 14 14 15 15 15 16 17 18 18 19 19 17 16 14 13 13 13 10 8
nan nan nan nan nan nan nan nan nan nan nan nan nan nan nan nan nan nan nan nan nan nan nan nan nan nan nan nan nan nan nan nan nan nan nan nan nan nan nan nan nan 19 16 15 14 15 17 20 20 20 22 22 21 21 19 18 17 16 20 20 20 21 20 19 18 18 19 18 17 17 16 15 15 15 16 18 19 19 19 18 17 16 16 15 13 11 9
nan nan nan nan nan nan nan nan nan nan nan nan nan nan nan nan nan nan nan nan nan nan nan nan nan nan nan nan nan nan nan nan nan nan nan nan nan nan nan nan nan nan nan 10 10 11 15 18 19 21 22 22 21 19 19 19 16 18 21 20 21 22 21 20 22 22 21 20 20 19 18 17 17 16 17 19 19 19 20 19 17 17 17 15 12 11 11
nan nan nan nan nan nan nan nan nan nan nan nan nan nan nan nan nan nan nan nan nan nan nan nan nan nan nan nan nan nan nan nan nan nan nan nan nan nan nan nan 27 25 21 17 12 8 11 15 17 20 22 23 23 20 19 17 16 20 21 21 22 23 22 24 26 26 24 23 23 21 21 20 20 19 19 19 19 20 20 19 18 20 18 15 13 12 12
nan nan nan nan nan nan nan nan nan nan nan nan nan nan nan nan nan nan nan nan nan nan nan nan nan nan nan nan nan nan nan nan nan nan nan nan nan nan nan nan nan 24 25 22 15 8 8 14 18 18 20 24 23 19 17 15 19 21 21 21 22 22 24 27 28 28 28 27 25 24 24 23 23 23 22 20 20 20 19 20 22 21 18 17 15 14 13
nan nan nan nan nan nan nan nan nan nan nan nan nan nan nan nan nan nan nan nan nan nan nan nan nan nan nan nan nan 31 nan nan nan nan nan nan nan 23 22 24 nan 22 23 25 21 12 8 12 15 17 22 23 20 18 17 21 23 21 21 20 20 20 23 26 27 29 30 28 27 26 27 28 27 26 24 22 21 20 21 24 22 20 20 18 16 16 14
nan nan nan nan nan nan nan nan nan nan nan nan nan nan nan nan nan nan nan nan nan nan nan nan nan nan 37 38 37 36 39 43 nan nan nan 41 37 34 30 27 26 26 25 24 23 20 16 16 20 25 26 24 23 23 24 25 23 23 22 21 21 20 22 23 26 28 29 29 28 29 30 31 30 28 25 24 23 22 22 23 23 22 22 20 17 16 15
nan nan nan nan nan nan nan nan nan nan nan nan nan nan nan nan 51 nan nan nan nan nan nan nan 37 38 36 41 42 39 39 43 47 48 48 44 42 39 35 30 25 26 26 25 23 21 20 21 24 26 26 27 28 25 26 25 26 25 25 25 24 24 23 24 25 26 28 29 30 32 33 33 31 29 28 27 25 24 23 23 24 26 24 21 18 17 18
nan nan nan nan nan nan nan nan nan nan nan nan nan nan 53 57 54 nan nan nan nan nan nan nan 36 35 38 45 43 41 41 43 46 46 44 43 44 43 41 36 29 28 31 31 25 27 28 25 26 27 27 31 30 28 28 27 29 29 30 28 27 28 27 27 26 27 28 29 31 34 35 34 32 30 30 29 27 27 25 25 26 26 23 21 21 20 20
nan nan nan nan nan nan nan nan nan nan nan nan nan nan 52 54 54 51 nan nan nan nan nan nan nan nan nan 44 41 40 42 42 45 45 45 44 44 46 45 43 42 38 33 29 29 29 27 24 24 27 31 37 34 31 28 31 33 34 34 30 30 31 30 31 32 32 31 30 32 35 35 34 32 31 31 30 29 28 26 26 26 24 24 24 24 24 24
nan nan nan nan nan nan nan nan nan nan nan nan nan nan nan nan 56 55 nan nan nan nan nan nan nan nan nan 36 37 39 42 43 44 46 49 49 47 46 46 46 44 40 36 32 33 37 35 29 31 37 40 40 39 34 33 35 36 36 34 32 33 32 30 31 32 33 33 32 32 33 34 32 33 33 32 32 31 30 27 26 25 26 27 26 26 27 27
nan nan nan nan nan nan nan nan nan nan nan nan nan nan nan nan 59 57 55 52 nan nan nan nan nan nan nan 30 33 41 45 44 46 48 52 53 52 50 49 49 47 44 42 41 40 40 38 35 39 40 42 42 40 38 38 40 39 36 33 34 36 35 35 35 33 33 33 31 31 33 31 30 32 33 34 36 35 33 29 28 28 28 29 29 28 29 29
nan nan nan nan nan nan nan nan nan nan nan nan nan nan nan 61 61 59 54 53 47 46 45 40 40 36 36 37 39 43 47 50 54 54 52 51 50 51 53 53 51 50 50 50 46 45 44 43 43 43 44 44 42 42 44 46 42 39 37 38 42 43 44 43 39 35 33 30 30 32 31 31 32 34 36 36 37 35 32 31 30 30 30 31 30 30 30
nan nan nan nan nan nan 69 nan nan 57 nan nan nan 55 59 64 62 58 54 55 49 50 51 47 44 42 44 44 44 46 48 50 50 52 53 54 56 56 54 55 56 54 54 55 55 54 50 47 47 47 46 43 41 43 47 46 43 41 41 43 46 46 47 46 44 40 37 33 32 34 34 35 36 35 35 36 36 36 35 33 32 31 32 33 32 31 32
56 60 nan nan nan nan 73 68 56 63 57 48 48 54 62 62 61 59 57 55 48 53 53 51 48 46 46 48 49 50 50 50 48 48 51 55 58 59 59 59 57 55 55 56 57 55 53 52 52 50 49 47 44 45 44 40 40 43 47 49 49 48 49 49 48 46 45 43 41 40 39 38 38 38 40 39 37 38 37 35 35 35 34 34 35 35 37
nan 60 nan nan 60 62 65 61 51 51 48 46 49 50 55 59 61 61 60 57 52 52 53 50 48 47 47 48 49 50 51 50 47 46 47 50 54 57 59 58 57 58 57 57 56 57 55 54 52 53 52 48 48 48 42 41 47 50 51 52 54 54 53 50 48 46 46 46 44 42 40 41 40 41 43 43 42 42 40 40 39 39 38 38 38 39 39
nan nan 60 65 66 60 62 63 57 50 50 53 55 54 50 54 59 60 63 60 57 55 55 53 50 49 48 50 51 52 51 49 48 46 46 46 47 49 53 55 55 56 57 58 58 58 59 57 56 55 56 53 51 49 52 56 54 54 54 55 57 57 56 55 53 51 48 46 44 44 44 46 45 45 47 49 48 47 47 46 44 42 42 42 41 42 42
43 51 61 63 62 65 68 68 65 61 57 56 55 56 55 57 58 59 63 63 62 59 57 58 55 53 51 53 54 53 51 50 49 47 46 46 47 48 48 48 49 47 47 51 55 57 58 59 57 57 57 57 58 55 56 58 60 59 58 57 57 56 57 56 54 54 55 54 53 52 51 51 49 49 51 53 52 52 52 52 51 48 48 48 47 46 44
48 nan 55 60 62 65 69 74 76 69 62 58 56 57 60 59 59 63 67 67 67 65 65 64 60 58 54 53 53 51 50 51 51 51 49 49 50 50 51 49 47 48 48 50 53 53 53 51 52 52 53 53 53 52 55 55 56 57 56 53 51 51 52 52 52 56 59 62 62 61 60 58 55 55 56 56 57 57 55 57 58 56 53 51 52 50 48
nan nan 52 56 60 64 66 73 78 75 69 66 67 65 63 64 64 64 65 68 71 69 71 66 66 63 60 59 57 57 56 55 55 55 55 54 54 55 55 54 52 52 52 53 54 54 51 49 48 49 50 50 50 51 51 53 54 54 53 51 48 45 45 48 52 54 56 57 60 61 61 62 62 63 62 61 60 59 58 59 62 63 61 58 54 52 52
58 55 55 54 57 65 72 77 81 74 65 63 70 76 73 72 74 72 71 72 73 76 73 71 71 71 67 65 64 64 62 62 62 62 62 62 63 63 62 61 60 59 58 56 55 54 52 50 50 51 51 50 48 48 48 50 54 54 55 54 52 50 49 50 51 53 56 58 59 59 59 61 64 63 66 66 64 66 71 70 67 65 63 63 58 56 56
nan nan nan 52 nan 58 68 77 78 73 62 57 65 74 78 74 72 71 70 68 68 70 70 71 74 74 69 67 67 67 66 65 66 67 67 66 66 66 63 62 62 62 62 59 57 56 53 52 53 53 53 52 50 48 47 46 49 54 54 55 55 53 53 52 52 54 58 60 62 64 68 73 73 72 72 72 69 70 75 85 87 79 65 63 62 61 60
nan 48 49 nan nan 64 68 64 56 51 52 52 62 nan 75 76 72 69 68 64 63 63 63 64 70 71 71 68 68 69 67 66 66 67 66 65 64 64 62 62 62 60 58 57 56 57 55 53 54 53 52 52 52 50 49 48 49 51 51 51 54 55 57 59 59 58 58 60 63 68 75 78 80 83 78 78 85 91 91 92 94 88 70 62 61 60 58
60 48 44 44 54 65 67 nan nan nan nan 44 57 63 nan 75 74 69 69 66 63 61 63 64 63 64 67 68 71 69 65 64 65 66 65 65 63 63 63 64 63 62 60 59 58 57 55 54 54 52 51 51 50 49 49 49 51 54 56 57 58 58 60 61 64 66 67 61 56 68 79 80 83 85 87 84 80 84 95 101 104 99 80 63 60 64 65
63 54 42 37 45 60 nan nan nan nan nan 33 nan nan nan nan nan 72 71 70 68 67 67 66 64 62 63 63 63 64 62 59 59 62 63 63 63 61 60 62 61 60 58 56 55 55 55 54 54 52 51 49 46 45 45 46 49 55 56 58 60 60 60 60 62 64 65 64 68 64 78 88 83 85 84 83 85 87 89 97 103 102 87 71 70 75 73
67 58 46 38 45 56 60 nan nan nan nan nan nan nan nan nan 72 74 74 72 72 72 71 67 63 59 55 57 59 59 61 59 55 57 59 59 58 57 56 55 54 55 56 55 54 53 53 54 53 52 50 47 45 45 46 47 49 51 52 54 55 55 56 58 59 58 58 58 60 67 71 77 78 83 82 78 79 87 92 88 92 94 92 82 74 74 76
59 58 47 44 48 55 nan 49 nan nan nan nan nan nan nan nan nan 67 66 66 68 69 68 64 60 55 54 54 55 56 55 51 53 54 52 54 55 51 46 45 51 54 56 56 54 51 52 52 52 51 49 46 46 46 45 45 47 48 51 54 55 59 64 62 58 58 54 53 61 64 60 55 53 65 78 77 76 80 83 84 80 76 77 82 80 75 69
54 58 53 nan 40 nan nan nan nan nan nan nan nan nan nan nan nan 58 58 57 nan nan nan nan 56 54 54 53 52 50 49 49 49 47 49 47 45 44 45 47 50 53 55 55 52 50 50 49 49 48 46 45 47 47 45 44 46 49 50 52 55 56 58 59 55 51 49 50 56 61 59 51 44 50 61 69 70 70 72 75 74 71 73 78 74 70 74
52 58 60 55 nan nan nan nan nan nan nan nan nan nan nan nan nan nan nan nan nan nan nan nan nan nan nan 52 52 50 48 49 50 50 48 46 44 41 41 46 49 50 nan 52 50 48 47 47 45 46 44 43 45 46 46 47 48 48 47 48 49 49 52 51 47 43 42 43 42 45 46 48 46 47 50 nan 53 53 54 57 60 62 66 65 68 68 69
45 52 nan nan nan nan nan nan nan nan nan nan nan nan nan nan nan nan nan nan nan nan nan nan nan nan nan nan 54 53 51 50 50 49 50 48 46 43 41 41 48 nan nan nan 47 44 45 45 44 44 41 39 40 42 42 43 44 44 45 44 43 43 41 40 42 43 43 41 40 39 36 36 40 46 49 47 44 46 50 53 56 58 59 59 61 64 64
nan nan 50 nan nan nan nan nan nan nan nan nan nan nan nan nan nan nan nan nan nan nan nan nan nan nan nan nan nan nan 47 46 49 50 49 47 46 45 45 46 48 47 nan 46 45 44 46 46 45 44 39 38 39 39 39 39 39 41 41 40 41 41 42 40 39 40 40 39 37 35 34 34 35 39 45 47 48 50 51 49 49 50 51 54 58 61 60
nan nan nan nan nan nan nan nan nan nan nan nan nan nan nan nan nan nan nan nan nan nan nan nan nan nan nan nan nan nan nan nan nan 51 50 48 47 45 nan nan nan nan 43 43 44 nan 45 46 46 41 38 39 40 39 38 37 37 37 35 34 34 32 32 35 33 33 33 32 32 31 30 31 32 34 37 37 37 37 37 39 43 46 49 53 54 55 54
nan nan nan nan nan nan nan nan nan nan nan nan nan nan nan nan nan nan nan nan nan nan nan nan nan nan nan nan nan nan nan nan nan nan nan nan nan nan nan nan nan nan nan 39 nan nan nan nan nan 39 40 40 40 38 37 35 34 33 33 31 30 28 27 27 29 28 27 26 26 25 24 25 27 28 27 27 28 32 34 nan 42 nan nan nan nan nan nan
nan nan nan nan nan nan nan nan nan nan nan nan nan nan nan nan nan nan nan nan nan nan nan nan nan nan nan nan nan nan nan nan nan nan nan nan nan nan nan nan nan nan nan nan nan nan nan nan 40 nan 39 41 40 38 38 37 34 32 31 30 30 29 28 25 25 27 27 26 26 26 26 26 27 28 29 30 32 35 37 nan nan nan nan nan nan nan nan
nan nan nan nan nan nan nan nan nan nan nan nan nan nan nan nan nan nan nan nan nan nan nan nan nan nan nan nan nan nan nan nan nan nan nan nan nan nan nan nan nan nan nan nan nan nan nan 40 40 nan nan 40 41 39 38 36 34 33 31 31 30 28 28 29 28 25 26 28 28 27 27 28 29 29 31 32 33 36 nan nan nan nan nan nan nan nan nan
nan nan nan nan nan nan nan nan nan nan nan nan nan nan nan nan nan nan nan nan nan nan nan nan nan nan nan nan nan nan nan nan nan nan nan nan nan nan nan nan nan nan nan nan nan nan nan 41 46 46 nan nan nan 40 39 36 32 30 29 30 31 32 32 32 31 30 28 28 28 28 30 31 33 33 35 37 38 nan nan nan nan nan nan 50 nan nan nan
nan nan nan nan nan nan nan nan nan nan nan nan nan nan nan nan nan nan nan nan nan nan nan nan nan nan nan nan nan nan nan nan nan nan nan nan nan nan nan nan nan nan nan nan nan nan nan nan nan nan nan nan nan nan 35 35 31 31 31 30 30 31 33 33 31 29 29 29 28 30 32 33 34 36 37 39 42 nan nan nan nan nan nan 49 nan nan 47
nan nan nan nan nan nan nan nan nan nan nan nan nan nan nan nan nan nan nan nan nan nan nan nan nan nan nan nan nan nan nan nan nan nan nan nan nan nan nan nan nan nan nan nan nan nan nan nan nan nan nan nan nan nan 29 31 32 nan 33 32 30 30 31 32 31 31 32 32 32 32 35 36 38 38 38 40 40 41 nan nan nan nan nan nan nan 46 46
nan nan nan nan nan nan nan nan nan nan nan nan nan nan nan nan nan nan nan nan nan nan nan nan nan nan nan nan nan nan nan nan nan nan nan nan nan nan nan nan nan nan nan nan nan nan nan nan nan nan nan nan nan nan 27 31 35 nan nan nan nan 35 37 37 38 36 35 35 37 37 39 41 42 42 42 42 42 42 41 nan nan nan nan nan 46 46 46
nan nan nan nan nan nan nan nan nan nan nan nan nan nan nan nan nan nan nan nan nan nan nan nan nan nan nan nan nan nan nan nan nan nan nan nan nan nan nan nan nan nan nan nan nan nan nan nan nan nan nan nan nan nan nan 32 nan nan nan nan 35 37 39 nan nan 42 42 42 41 41 41 42 42 43 45 45 45 44 43 43 nan nan nan nan 47 49 51
nan nan nan nan nan nan nan nan nan nan nan nan nan nan nan nan nan nan nan nan nan nan nan nan nan nan nan nan nan nan nan nan nan nan nan nan nan nan nan nan nan nan nan nan nan nan nan nan nan nan nan nan nan 28 nan nan nan nan 35 36 37 37 38 39 40 41 41 41 40 39 38 36 35 37 39 41 41 43 45 45 45 nan 46 47 48 48 47
nan nan nan nan nan nan nan nan nan nan nan nan nan nan nan nan nan nan 25 26 28 29 29 29 32 nan nan nan nan nan nan nan nan nan nan nan nan nan nan nan nan nan nan nan nan nan nan nan nan nan nan nan nan 32 33 nan nan nan nan nan nan 36 37 38 38 37 36 36 35 34 35 34 32 29 27 29 32 35 39 41 40 41 41 41 nan nan nan
nan nan nan nan nan nan nan nan nan nan nan nan nan nan nan nan nan nan nan nan nan nan nan nan nan nan nan nan nan nan nan nan nan nan nan nan nan nan nan nan nan nan nan nan nan nan nan nan nan nan nan nan nan 36 nan nan nan nan nan nan nan nan nan nan nan nan nan 38 37 36 36 35 34 31 27 27 25 24 28 30 31 30 30 29 nan nan nan
nan nan nan nan nan nan nan nan nan nan nan nan nan nan nan nan nan nan nan nan nan nan nan nan nan nan nan nan nan nan nan nan nan nan nan nan nan nan nan 34 nan 36 43 nan nan nan nan nan nan nan nan nan nan nan nan nan nan nan nan nan nan nan nan nan nan nan nan nan nan nan nan nan 34 33 nan 29 30 28 26 27 30 32 32 nan nan nan nan
nan nan nan nan nan nan nan nan nan nan nan nan nan nan nan nan nan nan nan nan nan nan nan nan nan nan nan nan nan nan nan nan nan nan nan nan nan nan nan nan nan nan nan nan nan nan nan nan nan nan nan nan nan nan nan nan nan nan nan nan nan nan nan nan nan nan nan nan nan nan nan nan nan nan nan 28 31 34 33 30 30 29 32 34 nan nan nan
nan nan nan nan nan nan nan nan nan nan nan nan nan nan nan nan nan nan nan nan nan nan nan nan nan nan nan nan nan nan nan nan nan nan nan nan nan nan nan nan nan nan nan nan nan nan nan 35 nan nan nan nan nan nan nan nan 36 nan nan nan nan nan nan nan nan nan nan nan nan nan nan nan nan nan 29 31 32 32 32 29 27 26 nan 36 nan nan nan
nan nan nan nan nan nan nan nan nan nan nan nan nan nan nan nan nan nan nan nan nan nan nan nan nan nan nan nan nan nan nan nan nan nan nan nan nan nan nan nan nan nan nan nan nan nan nan nan nan nan nan nan nan nan nan nan nan nan nan nan nan nan nan nan nan nan nan nan nan nan nan nan nan nan nan nan nan nan nan nan 29 26 27 35 36 34 nan
nan nan nan nan nan nan nan nan nan nan nan nan nan nan nan nan nan nan nan nan nan nan nan nan nan nan nan nan nan nan nan nan nan nan nan nan nan nan nan nan nan nan nan nan nan nan nan nan nan nan nan nan nan nan nan nan nan nan nan nan nan nan nan nan 38 38 nan nan nan nan nan nan nan nan nan nan nan nan nan nan nan 25 24 31 32 31 32
nan nan nan nan nan nan nan nan nan nan nan nan nan nan nan nan nan nan nan nan nan nan nan nan nan nan nan nan nan nan nan nan nan nan nan nan nan nan nan nan nan nan nan nan nan nan nan nan nan nan nan nan nan nan nan nan nan nan nan nan nan nan nan nan nan nan nan nan nan nan nan nan nan nan nan nan nan nan nan 38 36 33 34 35 36 34 34
nan nan nan nan nan nan nan nan nan nan nan nan nan nan nan nan nan nan nan nan nan nan nan nan nan nan nan nan nan nan nan nan nan nan nan nan nan nan nan nan nan nan nan nan nan nan nan nan nan nan nan nan nan nan nan nan nan nan nan nan nan nan nan nan nan nan nan nan nan nan nan nan nan nan nan nan nan nan nan nan 46 47 45 43 40 37 37
nan nan nan nan nan nan nan nan nan nan nan nan nan nan nan nan nan nan nan nan nan nan nan nan nan nan nan nan nan nan nan nan nan nan nan nan nan nan nan nan nan nan nan nan nan nan nan nan nan nan nan nan nan nan nan nan nan nan nan nan nan nan nan nan nan nan nan nan nan nan nan nan nan nan nan nan nan nan nan nan nan nan 51 49 47 45 43
nan nan nan nan nan nan nan nan nan nan nan nan nan nan nan nan nan nan nan nan nan nan nan nan nan nan nan nan nan nan nan nan nan nan nan nan nan nan nan nan nan nan nan nan nan nan nan nan nan nan nan nan nan nan nan nan nan nan nan nan nan nan nan nan nan nan nan nan nan nan nan nan nan nan nan nan nan nan nan nan nan nan nan nan 50 49 48
Wind_Direction
nan nan nan nan nan nan nan nan nan nan nan nan nan nan nan nan nan nan nan nan nan nan nan nan nan nan nan nan nan nan nan nan nan nan nan nan nan nan nan nan 227 247 nan 276 291 292 287 282 275 272 270 270 272 278 281 279 282 293 295 300 306 307 309 318 325 317 303 293 289 288 288 285 284 282 277 270 262 253 251 255 256 254 248 251 258 266 271
nan nan nan nan nan nan nan nan nan nan nan nan nan nan nan nan nan nan nan nan nan nan nan nan nan nan nan nan nan nan nan nan nan nan nan nan nan nan nan nan nan 239 253 265 277 281 271 267 266 264 266 270 276 284 287 286 288 288 285 296 303 306 314 322 315 303 300 297 295 292 292 293 289 282 275 269 263 259 260 264 261 252 248 255 265 275 279
nan nan nan nan nan nan nan nan nan nan nan nan nan nan nan nan nan nan nan nan nan nan nan nan nan nan nan nan nan nan nan nan nan nan nan nan nan nan nan nan nan nan nan 258 266 274 273 268 266 264 265 271 277 282 281 285 291 283 285 293 300 306 317 314 301 297 296 298 296 299 300 294 289 286 279 269 264 263 265 268 265 255 253 261 268 269 283
nan nan nan nan nan nan nan nan nan nan nan nan nan nan nan nan nan nan nan nan nan nan nan nan nan nan nan nan nan nan nan nan nan nan nan nan nan nan nan nan 259 258 257 248 244 265 282 271 257 250 253 259 264 270 275 285 292 284 286 292 299 304 308 298 295 297 297 296 295 298 295 298 297 292 282 275 270 269 270 272 264 254 257 265 266 268 276
nan nan nan nan nan nan nan nan nan nan nan nan nan nan nan nan nan nan nan nan nan nan nan nan nan nan nan nan nan nan nan nan nan nan nan nan nan nan nan nan nan 268 272 269 259 255 269 267 256 252 260 263 267 269 273 284 277 279 287 290 291 293 292 290 294 295 293 294 295 294 296 294 288 286 290 290 287 280 278 272 261 258 262 264 263 269 284
nan nan nan nan nan nan nan nan nan nan nan nan nan nan nan nan nan nan nan nan nan nan nan nan nan nan nan nan nan 224 nan nan nan nan nan nan nan 243 247 248 nan 255 253 250 248 252 258 258 259 258 262 273 275 272 273 265 268 275 283 284 284 287 283 285 289 291 293 295 296 297 295 290 286 287 292 300 301 290 273 264 263 262 263 268 265 272 286
nan nan nan nan nan nan nan nan nan nan nan nan nan nan nan nan nan nan nan nan nan nan nan nan nan nan 237 237 231 222 219 223 nan nan nan 232 235 234 234 247 255 256 257 254 253 253 246 238 239 246 249 251 253 253 256 262 271 280 286 290 291 289 286 283 281 285 290 295 297 295 293 291 289 292 297 297 297 292 281 274 268 265 266 266 264 272 283
nan nan nan nan nan nan nan nan nan nan nan nan nan nan nan nan 233 nan nan nan nan nan nan nan 240 241 238 233 231 224 216 219 222 225 228 228 231 239 245 244 240 244 252 263 271 277 270 254 243 248 255 257 255 257 263 271 276 282 284 285 288 286 287 286 285 286 289 291 291 289 291 291 293 298 301 302 300 292 285 275 263 258 258 259 265 273 278
nan nan nan nan nan nan nan nan nan nan nan nan nan nan 225 231 232 nan nan nan nan nan nan nan 238 233 229 228 223 227 218 211 216 223 224 226 230 234 236 240 240 242 246 244 241 241 244 251 253 258 265 264 255 247 253 261 267 270 271 275 279 282 286 289 289 286 286 287 285 285 287 290 295 300 303 303 296 286 286 282 274 270 267 264 262 270 278
nan nan nan nan nan nan nan nan nan nan nan nan nan nan 225 228 231 234 nan nan nan nan nan nan nan nan nan 226 226 223 217 213 212 217 221 223 225 228 232 236 237 239 244 250 259 262 258 257 262 261 263 263 256 246 246 252 259 263 267 272 276 279 284 287 288 288 288 284 281 281 282 289 294 294 294 292 294 288 287 283 280 275 265 258 259 267 276
nan nan nan nan nan nan nan nan nan nan nan nan nan nan nan nan 231 233 nan nan nan nan nan nan nan nan nan 230 224 222 218 214 216 217 219 222 223 226 230 233 232 235 238 244 252 257 258 258 254 251 252 253 252 248 249 256 262 267 273 279 279 280 283 283 283 285 285 281 277 277 281 286 286 286 286 288 288 284 280 277 278 270 260 256 259 265 272
nan nan nan nan nan nan nan nan nan nan nan nan nan nan nan nan 227 230 237 244 nan nan nan nan nan nan nan 231 225 222 220 219 219 219 219 220 221 223 227 232 234 235 235 242 250 256 262 261 259 262 261 261 259 255 255 259 265 269 276 283 285 281 275 273 274 278 278 279 276 274 277 277 276 278 276 275 280 285 283 277 272 266 259 256 260 263 268
nan nan nan nan nan nan nan nan nan nan nan nan nan nan nan 226 226 226 231 237 236 240 242 232 232 221 227 227 223 220 219 221 222 223 224 225 227 227 227 228 231 239 241 241 242 246 249 253 259 261 264 267 269 266 263 265 272 277 278 281 283 281 277 276 278 279 274 272 274 273 271 268 265 265 266 271 276 280 281 275 269 264 262 258 259 262 265
nan nan nan nan nan nan 202 nan nan 205 nan nan nan 217 219 228 229 226 231 237 236 238 237 237 235 231 227 225 222 221 221 224 225 225 224 225 227 230 232 232 232 235 238 242 244 244 245 247 254 262 265 267 268 266 266 272 276 278 276 273 273 274 274 275 278 277 274 270 266 262 262 260 259 261 262 264 267 273 271 270 271 267 261 257 256 259 260
194 195 nan nan nan nan 197 192 204 216 217 211 210 224 224 225 227 232 228 234 234 242 240 236 237 234 228 223 221 220 221 222 222 222 223 225 227 228 229 230 234 238 241 242 245 246 245 246 248 254 262 269 269 269 272 276 275 271 269 270 272 273 272 273 274 275 275 275 267 256 255 258 260 261 261 259 260 261 264 264 265 264 259 254 254 255 256
nan 190 nan nan 194 190 189 196 206 201 205 204 210 212 230 222 224 229 230 228 231 236 242 242 239 235 233 228 226 226 226 226 226 225 224 223 223 225 230 235 236 239 244 247 249 249 250 249 249 249 257 263 268 270 276 275 271 271 273 274 274 276 275 275 275 273 273 273 271 265 264 263 261 261 261 261 259 257 257 255 255 257 252 250 252 255 259
nan nan 189 193 193 190 191 195 198 199 197 206 211 213 218 230 224 222 230 230 230 234 238 237 238 236 233 231 228 229 228 229 228 229 231 232 229 227 227 228 231 237 241 244 246 247 247 248 249 249 249 252 258 263 258 255 262 267 273 274 275 278 281 282 282 279 275 273 275 275 274 274 269 262 260 261 259 257 255 252 250 250 250 251 253 255 259
195 187 185 190 191 192 195 198 200 199 199 204 211 213 216 217 222 222 230 229 230 231 232 236 233 234 233 230 228 228 229 229 228 228 232 235 236 235 236 237 237 240 242 243 243 243 243 243 245 248 250 252 252 253 253 256 256 257 262 268 272 274 275 276 279 281 281 280 279 278 276 273 272 265 261 260 260 257 255 255 251 247 247 249 252 254 257
203 nan 181 187 190 194 197 202 202 203 202 206 211 215 215 217 219 224 225 228 228 230 231 234 235 234 232 232 230 230 232 234 234 234 235 239 241 241 242 243 246 248 249 249 247 246 244 244 246 247 249 251 253 255 256 258 258 258 261 267 272 273 274 275 276 276 278 277 277 278 277 274 271 267 261 258 258 256 256 256 255 252 246 247 251 253 256
nan nan 187 188 191 194 200 206 209 208 204 205 211 216 216 218 220 221 222 224 227 228 231 232 236 236 234 235 233 232 233 234 236 237 238 242 245 246 246 247 250 253 254 253 251 250 250 249 250 251 252 252 253 255 257 259 260 259 259 261 265 268 272 274 273 274 276 281 280 277 278 277 274 270 264 260 257 258 257 255 257 254 248 244 247 251 253
206 200 193 191 192 195 199 207 212 212 208 204 207 212 215 218 219 218 220 222 223 226 229 230 234 235 233 235 235 235 235 236 236 237 238 241 244 245 244 246 249 252 254 254 253 253 252 253 253 254 254 254 254 256 257 260 263 261 260 258 258 259 262 267 273 275 277 277 278 279 278 275 270 270 271 266 261 257 254 253 258 259 252 243 241 244 248
nan nan nan 190 nan 191 200 208 214 214 210 204 203 209 215 217 220 220 223 223 222 224 226 231 235 238 237 237 239 239 240 240 241 241 241 241 241 242 243 246 247 249 250 251 251 252 253 254 255 256 256 256 258 258 257 256 260 263 264 261 259 260 259 261 265 270 273 276 278 277 274 270 267 258 249 253 261 260 253 252 260 262 256 246 239 239 240
nan 193 186 nan nan 196 199 208 210 212 207 202 204 nan 209 215 219 222 224 226 226 226 227 230 237 238 239 240 241 242 242 243 244 243 242 242 242 242 243 246 245 246 247 248 249 249 250 252 254 255 256 258 260 262 261 259 259 260 260 263 267 268 267 267 264 262 268 275 276 273 271 269 265 263 261 254 251 254 254 253 255 261 262 251 240 238 243
198 194 186 183 185 192 198 nan nan nan nan 201 206 205 nan 211 216 220 224 225 227 227 228 230 231 237 240 241 243 243 243 245 245 243 243 244 245 247 247 248 247 246 247 248 250 250 251 253 254 254 256 257 257 259 261 261 262 263 262 263 262 261 263 266 267 268 268 263 268 274 270 266 265 263 262 258 248 248 257 258 254 254 256 253 244 240 244
196 202 201 188 187 192 nan nan nan nan nan 206 nan nan nan nan nan 219 223 225 227 229 231 232 234 237 240 239 238 241 244 244 244 244 243 245 245 246 248 248 247 249 250 252 253 254 253 254 254 255 257 257 258 260 262 264 267 267 265 264 264 263 264 265 265 266 265 264 266 267 267 260 257 259 255 251 255 254 249 256 258 258 256 245 233 231 238
196 205 208 199 188 191 195 nan nan nan nan nan nan nan nan nan 220 222 223 225 228 232 234 235 237 236 236 236 238 242 244 243 244 244 244 244 245 246 248 249 250 252 252 252 253 253 253 254 255 256 257 258 259 262 265 266 267 267 265 264 264 265 267 267 265 266 266 263 266 266 246 238 250 256 249 247 248 250 254 256 254 251 247 241 240 242 238
199 202 213 207 195 194 nan 201 nan nan nan nan nan nan nan nan nan 226 225 226 230 233 234 235 238 239 239 236 238 241 244 246 246 244 244 246 247 248 250 253 253 254 253 252 252 252 253 254 255 256 257 259 262 265 267 268 269 268 267 267 267 266 267 268 267 270 269 266 266 261 255 252 243 244 247 244 242 243 244 250 255 253 243 235 236 241 244
203 204 204 nan 206 nan nan nan nan nan nan nan nan nan nan nan nan 219 220 221 nan nan nan nan 238 240 241 237 236 236 237 240 244 245 246 246 248 250 252 252 252 253 252 252 252 251 253 255 256 257 258 260 263 266 269 270 270 267 266 268 270 272 272 271 271 271 269 267 263 261 259 257 246 224 215 226 232 234 239 240 240 239 232 229 235 240 241
212 214 217 217 nan nan nan nan nan nan nan nan nan nan nan nan nan nan nan nan nan nan nan nan nan nan nan 241 239 239 242 244 245 245 245 246 248 248 251 253 253 252 nan 251 251 251 253 255 257 257 258 259 264 268 270 270 270 269 268 269 272 273 275 277 277 275 273 267 264 263 258 253 242 224 216 nan 222 226 231 233 230 230 233 233 237 239 241
221 221 nan nan nan nan nan nan nan nan nan nan nan nan nan nan nan nan nan nan nan nan nan nan nan nan nan nan 244 245 248 248 246 246 246 246 245 245 246 252 254 nan nan nan 250 252 253 255 256 257 258 260 263 266 267 270 270 272 273 273 274 277 280 281 284 285 280 269 263 258 252 241 228 221 218 217 216 221 226 223 225 232 236 236 236 241 247
nan nan 229 nan nan nan nan nan nan nan nan nan nan nan nan nan nan nan nan nan nan nan nan nan nan nan nan nan nan nan 248 249 245 243 244 246 246 246 247 249 255 257 nan 255 254 254 255 256 257 257 257 259 260 262 265 267 271 273 274 273 275 275 278 278 280 283 275 260 248 245 238 224 213 212 214 214 212 211 214 222 228 235 240 241 242 243 247
nan nan nan nan nan nan nan nan nan nan nan nan nan nan nan nan nan nan nan nan nan nan nan nan nan nan nan nan nan nan nan nan nan 241 240 241 243 244 nan nan nan nan 260 258 256 nan 256 257 256 255 256 257 258 260 264 266 267 269 269 271 274 280 281 281 283 280 272 254 242 240 237 227 221 221 222 217 215 222 230 238 242 241 242 243 245 247 249
nan nan nan nan nan nan nan nan nan nan nan nan nan nan nan nan nan nan nan nan nan nan nan nan nan nan nan nan nan nan nan nan nan nan nan nan nan nan nan nan nan nan nan 258 nan nan nan nan nan 254 254 254 254 257 259 260 262 266 268 269 272 276 281 284 285 280 272 264 259 259 255 248 243 243 244 244 246 249 251 nan 250 nan nan nan nan nan nan
nan nan nan nan nan nan nan nan nan nan nan nan nan nan nan nan nan nan nan nan nan nan nan nan nan nan nan nan nan nan nan nan nan nan nan nan nan nan nan nan nan nan nan nan nan nan nan nan 252 nan 253 253 252 253 256 258 260 261 264 268 272 275 279 278 278 277 273 270 273 273 270 266 263 262 262 262 260 258 259 nan nan nan nan nan nan nan nan
nan nan nan nan nan nan nan nan nan nan nan nan nan nan nan nan nan nan nan nan nan nan nan nan nan nan nan nan nan nan nan nan nan nan nan nan nan nan nan nan nan nan nan nan nan nan nan 249 254 nan nan 252 251 251 252 254 258 261 266 268 269 270 270 272 271 268 270 274 274 271 268 267 266 266 268 268 265 262 nan nan nan nan nan nan nan nan nan
nan nan nan nan nan nan nan nan nan nan nan nan nan nan nan nan nan nan nan nan nan nan nan nan nan nan nan nan nan nan nan nan nan nan nan nan nan nan nan nan nan nan nan nan nan nan nan 248 246 246 nan nan nan 246 248 253 255 259 262 263 264 267 269 269 268 267 267 267 267 266 266 267 268 268 269 267 266 nan nan nan nan nan nan 263 nan nan nan
nan nan nan nan nan nan nan nan nan nan nan nan nan nan nan nan nan nan nan nan nan nan nan nan nan nan nan nan nan nan nan nan nan nan nan nan nan nan nan nan nan nan nan nan nan nan nan nan nan nan nan nan nan nan 243 253 264 266 264 262 263 264 267 267 268 270 269 267 267 269 269 269 267 268 268 269 269 nan nan nan nan nan nan 269 nan nan 265
nan nan nan nan nan nan nan nan nan nan nan nan nan nan nan nan nan nan nan nan nan nan nan nan nan nan nan nan nan nan nan nan nan nan nan nan nan nan nan nan nan nan nan nan nan nan nan nan nan nan nan nan nan nan 242 248 271 nan 277 275 272 269 267 266 267 269 272 273 272 274 276 275 275 275 275 275 276 277 nan nan nan nan nan nan nan 270 269
nan nan nan nan nan nan nan nan nan nan nan nan nan nan nan nan nan nan nan nan nan nan nan nan nan nan nan nan nan nan nan nan nan nan nan nan nan nan nan nan nan nan nan nan nan nan nan nan nan nan nan nan nan nan 247 247 256 nan nan nan nan 273 272 271 271 271 270 270 269 270 271 273 275 277 277 278 279 279 279 nan nan nan nan nan 271 270 269
nan nan nan nan nan nan nan nan nan nan nan nan nan nan nan nan nan nan nan nan nan nan nan nan nan nan nan nan nan nan nan nan nan nan nan nan nan nan nan nan nan nan nan nan nan nan nan nan nan nan nan nan nan nan nan 250 nan nan nan nan 265 266 267 nan nan 269 268 265 264 266 269 272 273 274 275 277 279 280 279 278 nan nan nan nan 268 267 266
nan nan nan nan nan nan nan nan nan nan nan nan nan nan nan nan nan nan nan nan nan nan nan nan nan nan nan nan nan nan nan nan nan nan nan nan nan nan nan nan nan nan nan nan nan nan nan nan nan nan nan nan nan 248 nan nan nan nan 259 260 262 265 267 268 270 270 270 270 269 268 264 262 269 278 279 278 277 275 274 273 272 nan 269 268 267 267 267
nan nan nan nan nan nan nan nan nan nan nan nan nan nan nan nan nan nan 232 233 234 234 236 237 242 nan nan nan nan nan nan nan nan nan nan nan nan nan nan nan nan nan nan nan nan nan nan nan nan nan nan nan nan 251 255 nan nan nan nan nan nan 265 266 267 268 267 266 265 265 264 266 269 262 251 261 273 276 274 273 271 269 267 266 266 nan nan nan
nan nan nan nan nan nan nan nan nan nan nan nan nan nan nan nan nan nan nan nan nan nan nan nan nan nan nan nan nan nan nan nan nan nan nan nan nan nan nan nan nan nan nan nan nan nan nan nan nan nan nan nan nan 249 nan nan nan nan nan nan nan nan nan nan nan nan nan 264 261 260 260 260 258 259 259 265 266 267 273 276 274 269 267 266 nan nan nan
nan nan nan nan nan nan nan nan nan nan nan nan nan nan nan nan nan nan nan nan nan nan nan nan nan nan nan nan nan nan nan nan nan nan nan nan nan nan nan 249 nan 246 243 nan nan nan nan nan nan nan nan nan nan nan nan nan nan nan nan nan nan nan nan nan nan nan nan nan nan nan nan nan 254 253 nan 260 257 255 263 270 272 273 273 nan nan nan nan
nan nan nan nan nan nan nan nan nan nan nan nan nan nan nan nan nan nan nan nan nan nan nan nan nan nan nan nan nan nan nan nan nan nan nan nan nan nan nan nan nan nan nan nan nan nan nan nan nan nan nan nan nan nan nan nan nan nan nan nan nan nan nan nan nan nan nan nan nan nan nan nan nan nan nan 245 248 252 252 255 260 265 274 273 nan nan nan
nan nan nan nan nan nan nan nan nan nan nan nan nan nan nan nan nan nan nan nan nan nan nan nan nan nan nan nan nan nan nan nan nan nan nan nan nan nan nan nan nan nan nan nan nan nan nan 245 nan nan nan nan nan nan nan nan 253 nan nan nan nan nan nan nan nan nan nan nan nan nan nan nan nan nan 237 239 243 248 247 246 249 259 nan 273 nan nan nan
nan nan nan nan nan nan nan nan nan nan nan nan nan nan nan nan nan nan nan nan nan nan nan nan nan nan nan nan nan nan nan nan nan nan nan nan nan nan nan nan nan nan nan nan nan nan nan nan nan nan nan nan nan nan nan nan nan nan nan nan nan nan nan nan nan nan nan nan nan nan nan nan nan nan nan nan nan nan nan nan 245 242 248 259 261 262 nan
nan nan nan nan nan nan nan nan nan nan nan nan nan nan nan nan nan nan nan nan nan nan nan nan nan nan nan nan nan nan nan nan nan nan nan nan nan nan nan nan nan nan nan nan nan nan nan nan nan nan nan nan nan nan nan nan nan nan nan nan nan nan nan nan 237 238 nan nan nan nan nan nan nan nan nan nan nan nan nan nan nan 247 249 258 263 265 268
nan nan nan nan nan nan nan nan nan nan nan nan nan nan nan nan nan nan nan nan nan nan nan nan nan nan nan nan nan nan nan nan nan nan nan nan nan nan nan nan nan nan nan nan nan nan nan nan nan nan nan nan nan nan nan nan nan nan nan nan nan nan nan nan nan nan nan nan nan nan nan nan nan nan nan nan nan nan nan 243 245 246 252 259 265 269 271
nan nan nan nan nan nan nan nan nan nan nan nan nan nan nan nan nan nan nan nan nan nan nan nan nan nan nan nan nan nan nan nan nan nan nan nan nan nan nan nan nan nan nan nan nan nan nan nan nan nan nan nan nan nan nan nan nan nan nan nan nan nan nan nan nan nan nan nan nan nan nan nan nan nan nan nan nan nan nan nan 242 240 242 253 261 268 271
nan nan nan nan nan nan nan nan nan nan nan nan nan nan nan nan nan nan nan nan nan nan nan nan nan nan nan nan nan nan nan nan nan nan nan nan nan nan nan nan nan nan nan nan nan nan nan nan nan nan nan nan nan nan nan nan nan nan nan nan nan nan nan nan nan nan nan nan nan nan nan nan nan nan nan nan nan nan nan nan nan nan 250 254 256 255 254
nan nan nan nan nan nan nan nan nan nan nan nan nan nan nan nan nan nan nan nan nan nan nan nan nan nan nan nan nan nan nan nan nan nan nan nan nan nan nan nan nan nan nan nan nan nan nan nan nan nan nan nan nan nan nan nan nan nan nan nan nan nan nan nan nan nan nan nan nan nan nan nan nan nan nan nan nan nan nan nan nan nan nan nan 252 252 253